TimeEDT,TemperatureF,Dew PointF,Humidity,Sea Level PressureIn,VisibilityMPH,Wind Direction,Wind SpeedMPH,Gust SpeedMPH,PrecipitationIn,Events,Conditions,WindDirDegrees,DateUTC
12:15 AM,48.2,39.2,71,29.93,10.0,NNE,5.8,-,N/A,,Mostly Cloudy,20,2013-05-11 04:15:00
12:35 AM,48.2,39.2,71,29.93,10.0,NNE,5.8,-,N/A,,Overcast,30,2013-05-11 04:35:00
12:55 AM,48.2,39.2,71,29.93,10.0,North,4.6,-,N/A,,Overcast,10,2013-05-11 04:55:00
1:15 AM,48.2,41.0,76,29.92,10.0,NNE,5.8,-,N/A,,Overcast,20,2013-05-11 05:15:00
1:35 AM,48.2,41.0,76,29.92,10.0,North,5.8,-,N/A,,Overcast,10,2013-05-11 05:35:00
1:55 AM,50.0,41.0,71,29.91,10.0,NNE,5.8,-,N/A,,Overcast,30,2013-05-11 05:55:00
2:15 AM,50.0,41.0,71,29.91,10.0,NE,4.6,-,N/A,,Overcast,40,2013-05-11 06:15:00
2:35 AM,48.2,42.8,82,29.90,9.0,ENE,5.8,-,N/A,,Overcast,60,2013-05-11 06:35:00
2:55 AM,48.2,42.8,82,29.89,10.0,NE,5.8,-,N/A,,Overcast,50,2013-05-11 06:55:00
3:15 AM,50.0,42.8,76,29.88,10.0,ENE,5.8,-,N/A,,Overcast,60,2013-05-11 07:15:00
3:35 AM,50.0,42.8,76,29.87,10.0,ENE,5.8,-,N/A,,Overcast,70,2013-05-11 07:35:00
3:55 AM,50.0,44.6,82,29.87,10.0,ENE,5.8,-,N/A,,Overcast,70,2013-05-11 07:55:00
4:15 AM,50.0,44.6,82,29.86,10.0,ENE,4.6,-,N/A,,Overcast,60,2013-05-11 08:15:00
4:35 AM,51.8,46.4,82,29.86,10.0,SE,8.1,-,N/A,,Overcast,130,2013-05-11 08:35:00
4:55 AM,51.8,46.4,82,29.85,10.0,ESE,8.1,-,N/A,,Overcast,120,2013-05-11 08:55:00
5:15 AM,51.8,44.6,76,29.85,10.0,SE,11.5,18.4,N/A,,Overcast,130,2013-05-11 09:15:00
5:35 AM,51.8,44.6,76,29.85,10.0,SE,11.5,19.6,N/A,,Overcast,130,2013-05-11 09:35:00
5:55 AM,51.8,44.6,76,29.84,10.0,SE,13.8,21.9,N/A,,Overcast,140,2013-05-11 09:55:00
6:15 AM,51.8,44.6,76,29.84,10.0,SE,9.2,16.1,N/A,,Overcast,140,2013-05-11 10:15:00
6:35 AM,51.8,46.4,82,29.84,10.0,SE,10.4,18.4,N/A,,Overcast,140,2013-05-11 10:35:00
6:55 AM,51.8,46.4,82,29.84,10.0,SSE,10.4,-,N/A,,Overcast,150,2013-05-11 10:55:00
7:15 AM,51.8,44.6,76,29.84,10.0,SSE,8.1,-,N/A,,Overcast,150,2013-05-11 11:15:00
7:35 AM,51.8,46.4,82,29.83,10.0,SE,12.7,18.4,N/A,,Overcast,140,2013-05-11 11:35:00
7:55 AM,51.8,44.6,76,29.82,10.0,SE,11.5,18.4,N/A,,Overcast,140,2013-05-11 11:55:00
8:15 AM,51.8,44.6,76,29.82,10.0,SSE,13.8,18.4,N/A,,Overcast,160,2013-05-11 12:15:00
8:35 AM,51.8,46.4,82,29.81,10.0,SSE,8.1,-,N/A,,Overcast,160,2013-05-11 12:35:00
8:55 AM,51.8,46.4,82,29.81,10.0,SSE,10.4,17.3,N/A,,Overcast,160,2013-05-11 12:55:00
9:15 AM,51.8,46.4,82,29.79,10.0,SE,12.7,18.4,N/A,,Overcast,140,2013-05-11 13:15:00
9:35 AM,51.8,46.4,82,29.78,10.0,SSE,11.5,23.0,0.01,,Overcast,160,2013-05-11 13:35:00
10:15 AM,50.0,46.4,87,29.77,10.0,SE,11.5,25.3,N/A,,Overcast,140,2013-05-11 14:15:00
10:35 AM,51.8,46.4,82,29.76,10.0,SSE,9.2,16.1,N/A,,Overcast,150,2013-05-11 14:35:00
10:55 AM,51.8,46.4,82,29.76,10.0,SSE,13.8,18.4,N/A,,Overcast,150,2013-05-11 14:55:00
11:15 AM,50.0,46.4,87,29.77,10.0,SSE,16.1,24.2,N/A,,Overcast,160,2013-05-11 15:15:00
11:35 AM,51.8,46.4,82,29.76,10.0,SSE,11.5,19.6,N/A,,Overcast,150,2013-05-11 15:35:00
11:55 AM,51.8,46.4,82,29.75,10.0,SSE,12.7,-,0.02,,Overcast,150,2013-05-11 15:55:00
12:15 PM,51.8,46.4,82,29.74,10.0,SSE,12.7,-,0.01,,Overcast,160,2013-05-11 16:15:00
12:35 PM,51.8,46.4,82,29.73,10.0,SSE,12.7,17.3,0.02,,Overcast,150,2013-05-11 16:35:00
12:55 PM,51.8,46.4,82,29.73,10.0,SSE,13.8,21.9,0.03,,Overcast,160,2013-05-11 16:55:00
1:15 PM,51.8,46.4,82,29.71,10.0,SE,11.5,17.3,0.01,,Overcast,130,2013-05-11 17:15:00
1:35 PM,51.8,48.2,88,29.69,10.0,SE,16.1,23.0,0.01,,Overcast,140,2013-05-11 17:35:00
1:55 PM,51.8,48.2,88,29.69,10.0,SE,12.7,17.3,0.01,,Overcast,140,2013-05-11 17:55:00
2:15 PM,51.8,48.2,88,29.68,10.0,SSE,15.0,20.7,N/A,,Overcast,150,2013-05-11 18:15:00
2:55 PM,53.6,48.2,82,29.67,10.0,SSE,11.5,-,N/A,,Overcast,160,2013-05-11 18:55:00
3:15 PM,53.6,48.2,82,29.67,10.0,SSE,12.7,-,N/A,,Overcast,150,2013-05-11 19:15:00
3:35 PM,53.6,48.2,82,29.65,10.0,SSE,13.8,-,N/A,,Overcast,160,2013-05-11 19:35:00
3:55 PM,53.6,48.2,82,29.65,10.0,South,9.2,-,N/A,,Overcast,170,2013-05-11 19:55:00
4:15 PM,53.6,48.2,82,29.65,10.0,South,10.4,-,N/A,,Overcast,170,2013-05-11 20:15:00
4:35 PM,53.6,50.0,88,29.64,10.0,SSE,11.5,17.3,N/A,,Overcast,150,2013-05-11 20:35:00
4:55 PM,53.6,50.0,88,29.63,10.0,SSE,11.5,-,N/A,,Overcast,150,2013-05-11 20:55:00
5:15 PM,53.6,50.0,88,29.64,10.0,SSE,11.5,-,N/A,,Overcast,160,2013-05-11 21:15:00
5:35 PM,53.6,50.0,88,29.63,10.0,SSE,8.1,-,N/A,,Overcast,150,2013-05-11 21:35:00
5:55 PM,53.6,50.0,88,29.63,10.0,SSE,8.1,-,N/A,,Overcast,160,2013-05-11 21:55:00
6:15 PM,53.6,50.0,88,29.63,10.0,SSE,6.9,-,N/A,,Overcast,160,2013-05-11 22:15:00
6:35 PM,53.6,50.0,88,29.62,10.0,SSE,6.9,-,N/A,,Overcast,150,2013-05-11 22:35:00
6:55 PM,53.6,50.0,88,29.62,10.0,SSE,8.1,-,N/A,,Overcast,150,2013-05-11 22:55:00
7:15 PM,53.6,50.0,88,29.62,10.0,SSE,8.1,-,N/A,,Overcast,150,2013-05-11 23:15:00
7:35 PM,53.6,50.0,88,29.62,10.0,SSE,8.1,-,N/A,,Overcast,150,2013-05-11 23:35:00
8:15 PM,53.6,51.8,94,29.61,7.0,SSE,8.1,-,N/A,,Overcast,150,2013-05-12 00:15:00
8:35 PM,53.6,51.8,94,29.60,6.0,SSE,8.1,-,N/A,,Overcast,150,2013-05-12 00:35:00
8:55 PM,55.4,51.8,88,29.60,10.0,SSE,8.1,-,N/A,,Overcast,160,2013-05-12 00:55:00
9:15 PM,55.4,51.8,88,29.60,9.0,SSE,6.9,-,N/A,,Overcast,160,2013-05-12 01:15:00
9:35 PM,55.4,51.8,88,29.59,9.0,SSE,5.8,-,N/A,,Overcast,160,2013-05-12 01:35:00
9:55 PM,55.4,51.8,88,29.59,10.0,SSE,4.6,-,N/A,,Overcast,160,2013-05-12 01:55:00
10:15 PM,55.4,51.8,88,29.58,10.0,SSE,3.5,-,N/A,,Overcast,150,2013-05-12 02:15:00
10:35 PM,55.4,51.8,88,29.57,10.0,SSE,5.8,-,N/A,,Overcast,150,2013-05-12 02:35:00
10:55 PM,55.4,51.8,88,29.56,10.0,SSE,6.9,-,N/A,,Overcast,150,2013-05-12 02:55:00
11:15 PM,55.4,51.8,88,29.56,10.0,SSE,5.8,-,N/A,,Overcast,150,2013-05-12 03:15:00
11:35 PM,55.4,51.8,88,29.56,10.0,SSE,5.8,-,N/A,,Overcast,160,2013-05-12 03:35:00
11:55 PM,55.4,53.6,94,29.57,10.0,South,6.9,-,N/A,,Overcast,180,2013-05-12 03:55:00